Regional Weather Roundup
Issued by NWS

Home | Current Version | Previous Version | Text Only | Print | Product List | Glossary Off
Versions: 1 2 3 4 5 6 7 8 9 10 11 12 13 14 15 16 17 18 19 20 21 22 23 24 25 26 27 28 29 30 31 32 33 34 35 36 37 38 39 40 41 42 43 44 45 46 47 48 49 50

000
ASUS43 KFSD 200002
RWRSD

WEATHER ROUNDUP FOR SOUTH DAKOTA
NATIONAL WEATHER SERVICE SIOUX FALLS SD
700 PM CDT THU OCT 19 2017

NOTE: "FAIR" INDICATES FEW OR NO CLOUDS BELOW 12,000 FEET WITH NO
SIGNIFICANT WEATHER AND/OR OBSTRUCTIONS TO VISIBILITY.


SDZ001>005-009-010-012>017-200100-
NORTHWEST AND NORTH CENTRAL SOUTH DAKOTA

CITY           SKY/WX    TMP DP  RH WIND       PRES   REMARKS
BUFFALO          N/A     69  31  24 SE9       29.66F
FAITH            N/A     69  29  22 SE12      29.73F
MOBRIDGE       CLEAR     63  42  46 SE7       29.71F
$$

SDZ012>016-024>037-041>051-057-063-072>074-200100-
SOUTHWEST AND SOUTH CENTRAL SOUTH DAKOTA

CITY           SKY/WX    TMP DP  RH WIND       PRES   REMARKS
RAPID CTY ARPT CLEAR     69  20  15 S9        29.75F
PIERRE         CLEAR     68  39  34 SE7       29.71F
CUSTER         CLEAR     65  16  15 CALM      29.89F
ELLSWORTH AFB  CLEAR     73  22  15 SW5       29.74F
PHILIP         CLEAR     74  31  20 S3        29.72F
PINE RIDGE     CLEAR     75  30  19 SE5       29.80F
SPEARFISH      FAIR      68  28  22 S10       29.77F
WINNER         FAIR      73  43  33 S15       29.79S
$$

SDZ004>011-016>023-039-040-200100-
NORTHEAST SOUTH DAKOTA

CITY           SKY/WX    TMP DP  RH WIND       PRES   REMARKS
ABERDEEN       CLEAR     59  44  57 SE7       29.77S
WATERTOWN      CLEAR     62  50  64 S9        29.83S
BROOKINGS      CLEAR     65  50  58 S15       29.86S
SISSETON         N/A     66  47  50 S8        29.78S
$$

SDZ017-020-022-023-036>040-048>070-200100-
SOUTHEAST SOUTH DAKOTA

CITY           SKY/WX    TMP DP  RH WIND       PRES   REMARKS
SIOUX FALLS    CLEAR     70  52  52 S15       29.88F
HURON          CLEAR     70  45  40 S12       29.80S
CHAMBERLAIN    CLEAR     69  48  47 SE10      29.79S
MITCHELL       CLEAR     70  46  42 S13       29.82F
YANKTON        CLEAR     67  50  54 SE9       29.89R
$$

ABBREVIATIONS USED IN REMARKS
   TC - TEMPERATURE IN CELSIUS
  WCI - WIND CHILL INDEX
   HX - HEAT INDEX
  VSB - VISIBILITY





USA.gov is the U.S. government's official web portal to all federal, state and local government web resources and services.